{"data":{"norad_id":66838,"epoch":"2026-05-25T00:42:35.301600Z","epoch_age_seconds":79669,"freshness":"FRESH","line1":"1 66838U 25280T   26145.02957525 -.00002304  00000+0 -18537-3 0  9998","line2":"2 66838  70.0005 141.8633 0003703 268.3858  91.6877 14.98321008 27513","mean_motion":14.98321008,"eccentricity":0.0003703,"inclination_deg":70.0005,"raan_deg":141.8633,"arg_perigee_deg":268.3858,"mean_anomaly_deg":91.6877,"bstar":-0.00018537,"rev_number":2751,"period_min":96.107575900718,"perigee_km":569.51003137722,"apogee_km":574.65736482624,"semimajor_km":6950.2206981017,"source":"CELESTRAK","updated_at":"2026-05-25T13:38:21.337354Z"}}